Location: Palo Alto
(37.4420°N, 122.1420°W)
Time: 13:22:06
(UTC-07:00)

ISS - All Passes

Search period start: 18 August 2017 00:00
Search period end: 28 August 2017 00:00
Orbit: 401 x 408 km, 51.6° (Epoch: 19 August)

Date Brightness Start Highest point End Pass type
(mag) Time Alt. Az. Time Alt. Az. Time Alt. Az.
18 Aug - 10:38:19 10° S 10:40:59 23° SE 10:43:39 10° ENE daylight
18 Aug - 12:14:21 10° W 12:17:21 32° NNW 12:20:20 10° NNE daylight
18 Aug - 17:07:42 10° NNW 17:10:04 18° NNE 17:12:25 10° ENE daylight
18 Aug - 18:43:33 10° WNW 18:46:46 56° SW 18:49:57 10° SE daylight
19 Aug - 09:47:44 10° SSE 09:48:56 12° SE 09:50:07 10° ESE daylight
19 Aug - 11:21:46 10° WSW 11:25:01 61° NW 11:28:16 10° NE daylight
19 Aug - 13:00:37 10° NW 13:02:02 12° NNW 13:03:28 10° N daylight
19 Aug - 16:15:59 10° N 16:17:33 13° NNE 16:19:06 10° NE daylight
19 Aug - 17:51:18 10° NW 17:54:32 67° NE 17:57:46 10° ESE daylight
19 Aug - 19:30:10 10° WSW 19:30:34 10° SW 19:30:59 10° SW daylight
20 Aug - 10:29:31 10° SW 10:32:46 64° SE 10:36:00 10° NE daylight
20 Aug - 12:07:13 10° WNW 12:09:30 17° NNW 12:11:48 10° NNE daylight
20 Aug - 16:59:11 10° NW 17:02:13 34° NNE 17:05:14 10° ESE daylight
20 Aug - 18:36:00 10° W 18:38:32 21° SW 18:41:02 10° S daylight
21 Aug - 09:37:40 10° SSW 09:40:35 29° SE 09:43:29 10° ENE daylight
21 Aug - 11:14:11 10° W 11:17:02 27° NNW 11:19:54 10° NNE daylight
21 Aug - 16:07:12 10° NNW 16:09:47 21° NNE 16:12:22 10° E daylight
21 Aug - 17:43:16 10° WNW 17:46:23 42° SW 17:49:29 10° SSE daylight
22 Aug - 08:46:32 10° SSE 08:48:28 15° SE 08:50:25 10° E daylight
22 Aug - 10:21:28 10° WSW 10:24:39 47° NW 10:27:50 10° NE daylight
22 Aug - 12:00:47 10° NW 12:01:46 11° NNW 12:02:46 10° N daylight
22 Aug - 15:15:22 10° NNW 15:17:16 14° NNE 15:19:09 10° ENE daylight
22 Aug - 16:50:53 10° NW 16:54:09 87° NE 16:57:24 10° SE daylight
23 Aug - 09:29:03 10° SW 09:32:20 84° SE 09:35:37 10° NE daylight
23 Aug - 11:07:08 10° WNW 11:09:11 15° NNW 11:11:13 10° NNE daylight
23 Aug - 14:23:58 10° N 14:24:39 10° NNE 14:25:20 10° NNE daylight
23 Aug - 15:58:41 10° NW 16:01:49 43° NE 16:04:56 10° ESE daylight
23 Aug - 17:35:54 10° W 17:38:02 16° SW 17:40:09 10° S daylight
24 Aug - 08:37:01 10° SSW 08:40:05 38° SE 08:43:10 10° ENE daylight
24 Aug - 10:13:57 10° W 10:16:38 23° NNW 10:19:20 10° NNE daylight
24 Aug - 15:06:37 10° NNW 15:09:23 25° NNE 15:12:09 10° E daylight
24 Aug - 16:42:54 10° WNW 16:45:53 33° SW 16:48:50 10° SSE daylight
25 Aug - 07:45:30 10° S 07:47:55 19° SE 07:50:18 10° E daylight
25 Aug - 09:21:05 10° WSW 09:24:11 38° NW 09:27:17 10° NE daylight
25 Aug - 14:14:41 10° NNW 14:16:51 16° NNE 14:19:01 10° ENE daylight
25 Aug - 15:50:23 10° NW 15:53:38 72° SW 15:56:52 10° SE daylight
26 Aug - 08:28:31 10° SW 08:31:47 76° NW 08:35:05 10° NE daylight
26 Aug - 10:06:59 10° NW 10:08:44 14° NNW 10:10:29 10° N daylight
26 Aug - 13:22:59 10° N 13:24:14 12° NNE 13:25:27 10° NE daylight
26 Aug - 14:58:04 10° NW 15:01:18 54° NE 15:04:30 10° ESE daylight
26 Aug - 16:35:52 10° W 16:37:24 13° SW 16:38:57 10° SSW daylight
27 Aug - 07:36:18 10° SSW 07:39:28 50° SE 07:42:40 10° ENE daylight
27 Aug - 09:13:38 10° WNW 09:16:08 20° NNW 09:18:37 10° NNE daylight
27 Aug - 14:05:55 10° NNW 14:08:51 29° NNE 14:11:46 10° E daylight
27 Aug - 15:42:29 10° WNW 15:45:15 25° SW 15:48:00 10° S daylight
